Regional Weather Roundup
Issued by NWS

Home | Current Version | Previous Version | Text Only | Print | Product List | Glossary Off
Versions: 1 2 3 4 5 6 7 8 9 10 11 12 13 14 15 16 17 18 19 20 21 22 23 24 25 26 27 28 29 30 31 32 33 34 35 36 37 38 39 40 41 42 43 44 45 46 47 48 49 50

000
ASUS43 KDTX 260701
RWRMI
MICHIGAN HOURLY REGIONAL WEATHER ROUNDUP
NATIONAL WEATHER SERVICE DETROIT/PONTIAC MI
300 AM EDT FRI MAY 26 2017

NOTE: "FAIR" INDICATES FEW OR NO CLOUDS BELOW 12,000 FEET WITH NO
SIGNIFICANT WEATHER AND/OR OBSTRUCTION TO VISIBILITY.

MIZ047>049-052>055-059>063-066>070-074>076-081>083-260800-
SOUTHEAST LOWER MICHIGAN

CITY           SKY/WX    TMP DP  RH WIND       PRES   REMARKS
ADRIAN         CLOUDY    57  55  93 NW5       29.70R
ALMA           CLOUDY    55  52  90 CALM      29.72R
ANN ARBOR      CLOUDY    56  54  93 NW7       29.68R
BAD AXE        FOG       49  49 100 NW9       29.67S VSB 1/2
CARO           DRIZZLE   54  53  97 NW5       29.67S
DETROIT CITY   CLOUDY    56  54  93 NW7       29.67R
DETROIT        CLOUDY    57  54  89 NW7       29.68R
FLINT          CLOUDY    54  52  93 N10       29.70R
GROSSE ILE     CLOUDY    57  54  89 NW6       29.66R
HILLSDALE      CLOUDY    54  52  94 W8        29.71R
HOWELL         CLOUDY    55  52  89 NW5       29.70R

CITY           SKY/WX    TMP DP  RH WIND       PRES   REMARKS
JACKSON        CLOUDY    57  53  86 NW6       29.71R
LAMBERTVILLE   CLOUDY    58  55  89 W3        29.69R
LANSING        CLOUDY    57  52  83 NW5       29.72R
LAPEER         CLOUDY    53  52  97 NW6       29.68R FOG
MASON          CLOUDY    56  53  92 NW5       29.71R
MONROE         RAIN      58  56  91 NW5       29.67R
MT. CLEMENS    CLOUDY    55  55 100 NW9       29.65R
PONTIAC        CLOUDY    54  52  93 NW9       29.67R
PORT HOPE        N/A     48  47  96 NW9       29.66R
PORT HURON     LGT RAIN  54  52  94 NW6       29.65R
TRI CITIES     CLOUDY    54  53  97 NW9       29.71R
MIDLAND        CLOUDY    55  52  89 CALM      29.70S
TROY           CLOUDY    56  52  86 NW8       29.69R
SAGINAW HB     CLOUDY    54  50  87 NW9       29.69R
$$
MIZ043>046-050>051-056>058-064>065-071>073-077>080-260800-
SOUTHWEST LOWER MICHIGAN

CITY           SKY/WX    TMP DP  RH WIND       PRES   REMARKS
BATTLE CREEK   CLEAR     53  52  96 W9        29.73R
BENTON HARBOR  PTCLDY    49  47  93 SW3       29.77S FOG
BIG RAPIDS     CLEAR     50  47  89 W5        29.73R
COLDWATER      PTCLDY    52  52 100 W6        29.73R
FREMONT        FAIR      50  50 100 NW3       29.74S
HOLLAND        CLEAR     50  48  93 NW3       29.75R
GRAND RAPIDS   CLEAR     55  53  93 NW6       29.73R
IONIA          FAIR      54  51  89 NW5       29.72R
KALAMAZOO      CLOUDY    51  49  92 W7        29.74S FOG
LUDINGTON      CLEAR     47  47 100 N3        29.75S FOG
MARSHALL       PTCLDY    55  54  98 W7        29.72R
MOUNT PLEASANT CLOUDY    56  51  84 NW3       29.71S
MUSKEGON       CLEAR     51  49  92 W5        29.75R
SOUTH HAVEN    CLOUDY    51  50  97 W5        29.76R
$$
MIZ016>042-260800-
NORTHERN LOWER MICHIGAN

CITY           SKY/WX    TMP DP  RH WIND       PRES   REMARKS
ALPENA         LGT RAIN  53  53 100 NW7       29.71R FOG
BEAVER ISLAND  CLOUDY    53  53  99 CALM      29.76S
BELLAIRE       CLOUDY    55  52  90 CALM      29.75R
CADILLAC       CLOUDY    52  51  95 N6        29.74R
CHARLEVOIX     CLOUDY    49  49 100 N5        29.78S FOG
FRANKFORT      CLEAR     48  46  93 CALM      29.76S
GAYLORD        CLOUDY    54  50  86 N6        29.73S
GRAYLING       CLOUDY    53  51  93 NW6       29.73R
HARBOR SPRINGS CLOUDY    46  46 100 CALM      29.74F
HOUGHTON LAKE  CLOUDY    53  51  93 NW7       29.72R
MANISTEE       CLEAR     47  46  97 W5        29.76R FOG
OSCODA         DRIZZLE   54  53  97 N8        29.68S
PELLSTON       CLOUDY    55  51  86 N8        29.75S
ROGERS CITY    CLOUDY    51  51  98 NW5       29.73S
TRAVERSE CITY  CLOUDY    52  50  93 CALM      29.75R
$$
MIZ007>008-015-260800-
EASTERN UPPER MICHIGAN

CITY           SKY/WX    TMP DP  RH WIND       PRES   REMARKS
KINROSS        CLOUDY    52  51  97 N8        29.75F
MACKINAC ISLAN CLOUDY    53  53 100 N6        29.75S
NEWBERRY       CLOUDY    51  50  97 N3        29.77S
S. S. MARIE    CLOUDY    56  52  86 W3        29.75S
MUNISING         N/A     42  41  96 S5        29.79R
$$
MIZ004>006-011>014-085-260800-
CENTRAL UPPER MICHIGAN

CITY           SKY/WX    TMP DP  RH WIND       PRES   REMARKS
MANISTIQUE     PTCLDY    51  48  90 CALM      29.78R FOG
ESCANABA       CLEAR     47  46  97 W3        29.79R
MENOMINEE      CLEAR     48  47  96 CALM      29.80S FOG
SAWYER-GWINN   CLEAR     50  46  87 CALM      29.79S
$$
MIZ001>003-009>011-084-260800-
WESTERN UPPER MICHIGAN

CITY           SKY/WX    TMP DP  RH WIND       PRES   REMARKS
IRON MOUNTAIN  CLEAR     45  43  93 CALM      29.79R
HOUGHTON       CLEAR     49  44  83 E6        29.77S
COPPER HARBOR    N/A     51  46  83 SW7       29.77R
IRONWOOD       CLOUDY    59  47  64 SE9       29.75R
$$

ABBREVIATIONS USED IN REMARKS
   TC - TEMPERATURE IN CELSIUS
  WCI - WIND CHILL INDEX
   HX - HEAT INDEX
  VSB - VISIBILITY




USA.gov is the U.S. government's official web portal to all federal, state and local government web resources and services.